Volver al catálogo

DELTA 1 DEB

ActivoSSO
NORAD 12230·DEBRIS·🇺🇸 United States

Lanzado Mar 5, 1978 desde Vandenberg Space Force Base

Loading…

Próximos Pases (próximas 24 horas)

TLE

ActualizadoSource: Space-Track

Época: Sep 13, 2026, 23:13 UTC

1 12230U 78026BX  26256.96746053  .00009594  00000-0  63541-3 0  9991
2 12230  98.0209 260.8628 0032870 133.8363 226.5589 15.07095057394380

Sigue DELTA 1 DEB en tiempo real con AllMySat

Download on the App Store